Weather History for KVBT - November, 2013

Change the Weather History Date:

Tuesday, November 5, 2013

  Actual Average Record
Temperature  
Mean Temperature 58 °F -  
Max Temperature 62 °F 58 °F 81 °F (1978)
Min Temperature 53 °F 36 °F 15 °F (1991)
Degree Days  
Heating Degree Days 8    
Growing Degree Days 8 (Base 50)    
Moisture  
Dew Point 54 °F    
Average Humidity 86    
Maximum Humidity 94    
Minimum Humidity 77    
Precipitation  
Precipitation 0.58 in - - ()
Sea Level Pressure  
Sea Level Pressure 30.05 in    
Wind  
Wind Speed 8 mph (SSE)    
Max Wind Speed 15 mph    
Max Gust Speed 20 mph    
Visibility 9 miles    
Events      
Averages and records for this station are not official NWS values.
T = Trace of Precipitation, MM = Missing Value Source: NWS Daily Summary

Daily Weather History Graph

Daily Weather History Graph

Search for Another Location

Airport or City:

Trip Planner

Search our weather history database for the weather conditions in past years. The results will help you decide how hot, cold, wet, or windy it might be!

Date:

Astronomy

Nov. 05, 2013 Rise Set
Actual Time 6:44 AM CST 5:16 PM CST
Civil Twilight 6:17 AM CST 5:43 PM CST
Nautical Twilight 5:46 AM CST 6:13 PM CST
Astronomical Twilight 5:16 AM CST 6:43 PM CST
Moon 8:57 AM CST (11/5) 7:20 PM CST (11/5)
Length of Visible Light 11h 25m
Length of Day
10h 32m
Waxing Crescent, 7% of the Moon is Illuminated
Nov 5
Waxing Crescent
Nov 9
First Quarter
Nov 17
Full
Nov 25
Last Quarter
Dec 2
New

Hourly Weather History & Observations

Time (CST) Temp. Dew Point Humidity Pressure Visibility Wind Dir Wind Speed Gust Speed Precip Events Conditions
12:15 AM 53.6 °F 50.0 °F 88% 30.15 in 10.0 mi SE 8.1 mph - N/A   Mostly Cloudy
12:35 AM 53.6 °F 50.0 °F 88% 30.14 in 7.0 mi SE 8.1 mph - 0.01 in   Mostly Cloudy
12:55 AM 53.6 °F 50.0 °F 88% 30.13 in 6.0 mi SE 6.9 mph - 0.02 in   Overcast
1:15 AM 53.6 °F 50.0 °F 88% 30.14 in 5.0 mi SSE 8.1 mph - 0.01 in   Overcast
1:35 AM 53.6 °F 50.0 °F 88% 30.14 in 5.0 mi SSE 5.8 mph - 0.04 in   Overcast
1:55 AM 53.6 °F 51.8 °F 94% 30.13 in 6.0 mi SE 5.8 mph - 0.08 in   Mostly Cloudy
2:15 AM 53.6 °F 51.8 °F 94% 30.12 in 9.0 mi SE 6.9 mph - 0.02 in   Overcast
2:35 AM 53.6 °F 51.8 °F 94% 30.13 in 10.0 mi SSE 6.9 mph - 0.02 in   Overcast
2:55 AM 53.6 °F 51.8 °F 94% 30.13 in 9.0 mi SSE 10.4 mph - 0.04 in   Overcast
3:15 AM 53.6 °F 51.8 °F 94% 30.12 in 7.0 mi SSE 6.9 mph - 0.03 in   Overcast
3:35 AM 53.6 °F 51.8 °F 94% 30.12 in 10.0 mi SSE 6.9 mph - 0.06 in   Overcast
3:55 AM 53.6 °F 51.8 °F 94% 30.12 in 10.0 mi SSE 8.1 mph - 0.09 in   Overcast
4:15 AM 53.6 °F 51.8 °F 94% 30.12 in 10.0 mi SSE 9.2 mph - 0.01 in   Overcast
4:35 AM 53.6 °F 51.8 °F 94% 30.12 in 10.0 mi SSE 8.1 mph - 0.02 in   Overcast
4:55 AM 53.6 °F 51.8 °F 94% 30.13 in 10.0 mi SSE 9.2 mph - 0.04 in   Overcast
5:15 AM 53.6 °F 51.8 °F 94% 30.12 in 9.0 mi SE 8.1 mph - 0.03 in   Overcast
5:35 AM 53.6 °F 51.8 °F 94% 30.12 in 10.0 mi SSE 8.1 mph - 0.04 in   Overcast
5:55 AM 53.6 °F 51.8 °F 94% 30.12 in 10.0 mi SE 5.8 mph - 0.04 in   Mostly Cloudy
6:15 AM 53.6 °F 51.8 °F 94% 30.12 in 10.0 mi SE 6.9 mph - N/A   Mostly Cloudy
6:35 AM 53.6 °F 51.8 °F 94% 30.12 in 10.0 mi SE 5.8 mph - N/A   Overcast
6:55 AM 53.6 °F 51.8 °F 94% 30.11 in 10.0 mi SE 8.1 mph - 0.01 in   Overcast
7:15 AM 55.4 °F 51.8 °F 88% 30.11 in 10.0 mi SE 8.1 mph - N/A   Overcast
7:35 AM 55.4 °F 51.8 °F 88% 30.11 in 7.0 mi SE 9.2 mph - 0.02 in   Overcast
7:55 AM 55.4 °F 51.8 °F 88% 30.12 in 7.0 mi SE 8.1 mph - 0.04 in   Overcast
8:15 AM 55.4 °F 51.8 °F 88% 30.12 in 5.0 mi SE 8.1 mph - 0.01 in   Mostly Cloudy
8:35 AM 55.4 °F 51.8 °F 88% 30.11 in 5.0 mi SE 10.4 mph - 0.05 in   Mostly Cloudy
8:55 AM 55.4 °F 53.6 °F 94% 30.10 in 10.0 mi ESE 9.2 mph - 0.05 in   Overcast
9:15 AM 57.2 °F 53.6 °F 88% 30.10 in 10.0 mi SE 10.4 mph - N/A   Overcast
9:35 AM 57.2 °F 53.6 °F 88% 30.11 in 10.0 mi SSE 10.4 mph - N/A   Overcast
9:55 AM 57.2 °F 53.6 °F 88% 30.11 in 10.0 mi SSE 10.4 mph - N/A   Overcast
10:15 AM 59.0 °F 53.6 °F 82% 30.11 in 7.0 mi SSE 8.1 mph - 0.01 in   Overcast
10:35 AM 57.2 °F 53.6 °F 88% 30.10 in 5.0 mi SSE 8.1 mph - 0.03 in   Overcast
10:55 AM 59.0 °F 55.4 °F 88% 30.09 in 4.0 mi SSE 6.9 mph - 0.04 in   Overcast
11:15 AM 59.0 °F 55.4 °F 88% 30.08 in 4.0 mi SSE 5.8 mph - 0.04 in   Overcast
11:35 AM 59.0 °F 55.4 °F 88% 30.07 in 3.0 mi SE 5.8 mph - 0.08 in   Overcast
11:55 AM 59.0 °F 55.4 °F 88% 30.06 in 5.0 mi South 8.1 mph - 0.08 in   Overcast
12:15 PM 59.0 °F 55.4 °F 88% 30.05 in 10.0 mi SSE 10.4 mph 16.1 mph 0.01 in   Overcast
12:35 PM 59.0 °F 55.4 °F 88% 30.04 in 10.0 mi South 6.9 mph - 0.01 in   Overcast
12:55 PM 60.8 °F 55.4 °F 82% 30.03 in 10.0 mi South 10.4 mph 18.4 mph 0.01 in   Overcast
1:15 PM 60.8 °F 55.4 °F 82% 30.02 in 10.0 mi South 15.0 mph 18.4 mph N/A   Overcast
1:35 PM 60.8 °F 55.4 °F 82% 30.01 in 10.0 mi South 11.5 mph 17.3 mph N/A   Overcast
1:55 PM 60.8 °F 55.4 °F 82% 30.01 in 10.0 mi South 10.4 mph - N/A   Overcast
2:15 PM 60.8 °F 55.4 °F 82% 30.00 in 10.0 mi SSE 12.7 mph - N/A   Overcast
2:35 PM 62.6 °F 55.4 °F 77% 29.99 in 10.0 mi South 9.2 mph - N/A   Overcast
2:55 PM 62.6 °F 55.4 °F 77% 29.99 in 10.0 mi SSE 9.2 mph - N/A   Overcast
3:15 PM 62.6 °F 55.4 °F 77% 29.99 in 10.0 mi South 10.4 mph - N/A   Overcast
3:35 PM 62.6 °F 55.4 °F 77% 30.00 in 10.0 mi South 9.2 mph - N/A   Overcast
3:55 PM 62.6 °F 55.4 °F 77% 30.00 in 10.0 mi South 8.1 mph - N/A   Overcast
4:15 PM 62.6 °F 55.4 °F 77% 30.00 in 10.0 mi South 8.1 mph - N/A   Overcast
4:35 PM 62.6 °F 55.4 °F 77% 29.99 in 10.0 mi South 10.4 mph - N/A   Overcast
4:55 PM 62.6 °F 55.4 °F 77% 29.99 in 10.0 mi South 12.7 mph 17.3 mph N/A   Overcast
5:15 PM 62.6 °F 55.4 °F 77% 29.99 in 10.0 mi South 8.1 mph - N/A   Overcast
5:35 PM 62.6 °F 55.4 °F 77% 29.99 in 10.0 mi South 6.9 mph - N/A   Overcast
5:55 PM 62.6 °F 55.4 °F 77% 29.98 in 10.0 mi SSE 12.7 mph - N/A   Overcast
6:15 PM 60.8 °F 55.4 °F 82% 30.00 in 10.0 mi SSE 9.2 mph - N/A   Overcast
6:35 PM 60.8 °F 57.2 °F 88% 29.99 in 10.0 mi SSE 8.1 mph - N/A   Overcast
6:55 PM 60.8 °F 55.4 °F 82% 29.99 in 10.0 mi SSE 8.1 mph - N/A   Overcast
7:15 PM 60.8 °F 55.4 °F 82% 29.99 in 10.0 mi SSE 10.4 mph - N/A   Overcast
7:35 PM 60.8 °F 57.2 °F 88% 29.99 in 10.0 mi South 10.4 mph - N/A   Overcast
7:55 PM 62.6 °F 57.2 °F 82% 29.97 in 10.0 mi SSE 11.5 mph 17.3 mph 0.03 in   Overcast
8:15 PM 62.6 °F 57.2 °F 82% 29.97 in 10.0 mi South 6.9 mph - 0.01 in   Overcast
8:35 PM 62.6 °F 57.2 °F 82% 29.98 in 10.0 mi South 9.2 mph - 0.01 in   Overcast
8:55 PM 62.6 °F 57.2 °F 82% 29.98 in 10.0 mi South 10.4 mph 16.1 mph 0.01 in   Overcast
9:15 PM 62.6 °F 57.2 °F 82% 29.97 in 10.0 mi South 9.2 mph - N/A   Mostly Cloudy
9:35 PM 62.6 °F 57.2 °F 82% 29.97 in 10.0 mi South 9.2 mph - N/A   Scattered Clouds
9:55 PM 62.6 °F 57.2 °F 82% 29.97 in 10.0 mi South 13.8 mph 18.4 mph N/A   Mostly Cloudy
10:15 PM 62.6 °F 57.2 °F 82% 29.97 in 10.0 mi South 11.5 mph 19.6 mph N/A   Scattered Clouds
10:35 PM 62.6 °F 57.2 °F 82% 29.96 in 10.0 mi South 10.4 mph 17.3 mph N/A   Scattered Clouds
10:55 PM 62.6 °F 57.2 °F 82% 29.96 in 10.0 mi South 11.5 mph 17.3 mph N/A   Mostly Cloudy
11:15 PM 62.6 °F 57.2 °F 82% 29.96 in 10.0 mi South 10.4 mph - N/A   Overcast
11:35 PM 62.6 °F 57.2 °F 82% 29.96 in 10.0 mi South 9.2 mph 16.1 mph N/A   Mostly Cloudy
11:55 PM 62.6 °F 57.2 °F 82% 29.95 in 10.0 mi South 11.5 mph - N/A   Overcast